User: anonymous   Login
Location: Hale Hill Observatory
(39.3806°N, 86.8431°W)
Time: 07:10:32
(UTC-05:00)
Language:

Cosmos 990 Rocket - Orbit

View from above orbital plane
View from above orbital plane
View from above satellite
View from above satellite

Ground track
Ground track

The orbit data is extracted from the following two-line orbital elements,

1 10677U 78019B   17350.39673169 -.00000018  00000-0  26104-5 0  9994
2 10677  74.0382 324.7696 0015494 348.9191  11.1620 14.40045368 88723
Epoch (UTC): 16 December 2017 09:31:17
Eccentricity: 0.0015494
inclination: 74.0382°
perigee height: 747 km
apogee height: 769 km
right ascension of ascending node: 324.7696°
argument of perigee: 348.9191°
revolutions per day: 14.40045368
mean anomaly at epoch: 11.1620°
orbit number at epoch: 8872

The dashed part of the orbit path shows where the satellite is in the earth's shadow,  

DLR